Home   Weather   Shawinigan   Past weeks
Flag for Canada

Past Weather in Shawinigan, Quebec, Canada — Yesterday and Last 2 Weeks

Now
49 °F

Cool.


Feels Like: 46 °F
Forecast: N/A
Wind: 6 mph from West

Location: Shawinigan CS

Current Time: Oct 14, 2019 at 7:13:03 pm

Latest Report: Oct 14, 2019 at 6:00 pm


Visibility: N/A

Pressure: 29.88 "Hg

Humidity: 81%

Dew Point: 43 °F

Location of ShawiniganLocation

Past Weather in Shawinigan — Graph

°F

Shawinigan Temperature Yesterday

Maximum temperature yesterday: 58 °F (at 2:00 pm)
Minimum temperature yesterday: 38 °F (at 11:00 pm)
Average temperature yesterday: 50 °F

High & Low Weather Summary for the Past Weeks

 TemperatureHumidityPressure
High64 °F (Oct 11, 3:00 pm)100% (Oct 2, 12:00 am)30.50 "Hg (Oct 2, 12:00 am)
Low31 °F (Oct 3, 6:00 am)27% (Oct 10, 4:00 pm)29.70 "Hg (Oct 1, 7:00 pm)
Average47 °F76%30.17 "Hg
* Reported Sep 29 6:00 pm — Oct 14 6:00 pm, Shawinigan. Weather by CustomWeather, © 2019

Note: Actual official high and low records may vary slightly from our data, if they occured in-between our weather recording intervals... More about our weather records

Advertising

Shawinigan Weather History for the Previous 24 Hours

Scroll right to see more
 ConditionsComfort  
Time TempWeatherWind HumidityBarometerVisibility
6:00 pm
Mon, Oct 14
49 °FCool.6 mph81%29.88 "HgN/A
5:00 pm47 °FCool.5 mph83%29.87 "HgN/A
4:00 pm50 °FCool.6 mph75%29.87 "HgN/A
3:00 pm53 °FCool.10 mph64%29.86 "HgN/A
2:00 pm56 °FRefreshingly cool.6 mph59%29.84 "HgN/A
1:00 pm56 °FRefreshingly cool.5 mph58%29.85 "HgN/A
12:00 pm52 °FCool.3 mph65%29.86 "HgN/A
11:00 am49 °FCool.2 mph65%29.87 "HgN/A
10:00 am45 °FCool.3 mph77%29.89 "HgN/A
9:00 am42 °FQuite cool.3 mph88%29.90 "HgN/A
8:00 am39 °FChilly.2 mph91%29.90 "HgN/A
7:00 am37 °FChilly.2 mph93%29.90 "HgN/A
6:00 am35 °FChilly.2 mph100%29.90 "HgN/A
5:00 am37 °FChilly.3 mph91%29.90 "HgN/A
4:00 am37 °FChilly.2 mph92%29.91 "HgN/A
3:00 am38 °FChilly.3 mph91%29.91 "HgN/A
2:00 am39 °FChilly.1 mph90%29.93 "HgN/A
1:00 am36 °FChilly.2 mph95%29.93 "HgN/A
12:00 am38 °FChilly.2 mph89%29.94 "HgN/A
11:00 pm
Sun, Oct 13
38 °FChilly.2 mph89%29.96 "HgN/A
10:00 pm40 °FChilly.2 mph87%29.96 "HgN/A
9:00 pm41 °FQuite cool.2 mph84%29.98 "HgN/A
8:00 pm45 °FCool.2 mph75%29.98 "HgN/A
7:00 pm47 °FCool.3 mph67%29.98 "HgN/A
Weather by CustomWeather, © 2019

See weather overview